Find Starlink 36883

NORAD ID: 67975 Int'l Des: 2026-038 Owner: SPXS Country: US Constellation: starlink operational
LEOCIRCULARRETROGRADE

Current View

Loading 3D Globe...

About Starlink 36883

Description loading...

Upcoming Passes

Passes for default location (London). Set your location on the main map for personalized predictions.

Altitude History

Loading altitude history...

Two-Line Element Set

1 67975U 26038Q 26150.00502389 .00021060 00000-0 65212-3 0 9992
2 67975 97.2835 160.0046 0001836 91.1603 268.9850 15.33479909 15706
Epoch: May 30, 2026 • Age: 12 hours

Current Status

Altitude 479.8 km
Velocity 7.62 km/s
Sub-Earth Point -35.83°S, 93.11°W
Launch Date Feb 25, 2026
Age 0.2 years
Type internet

Technical Details

Classification Payload
Mass 575.00 kg
Dry Mass 530.00 kg
Total Mass 575.00 kg
Length 0.30 m
Diameter 4.10 m
Span 29.00 m
Shape Box + pan
Manufacturer SPXS
Bus Type Starlink V2MO
Phase Status In Orbit
Owner/State SPXS/US

Most Searched